Overview Statistics Trail Chart Weather Telemetry Raw packets
 

This is the latest recevied weather packets stored in our database for station/object K9ZOG. If no packets are shown the sender has not sent any weather packets the latest 10 day(s).

<< 1 2 3 4 5 6 7 >>
Time Temp. Humidity Pressure Rain* Wind** Luminosity Snow
1788555686 26.11° C 80% 1013 hPa 0 mm - 433 W/m² -
1788555387 25.56° C 81% 1013 hPa 0 mm - 419 W/m² -
1788555085 25.56° C 83% 1013.3 hPa 0 mm - 472 W/m² -
1788554785 25° C 84% 1013.4 hPa 0 mm - 441 W/m² -
1788554486 25° C 84% 1013.5 hPa 0 mm - 272 W/m² -
1788554185 25° C 84% 1013.6 hPa 0 mm - 191 W/m² -
1788553887 25° C 84% 1013.4 hPa 0 mm - 174 W/m² -
1788553585 25.56° C 83% 1013.4 hPa 0 mm - 183 W/m² -
1788553285 25.56° C 84% 1013.5 hPa 0 mm - 193 W/m² -
1788552985 25.56° C 83% 1013.4 hPa 0 mm - 206 W/m² -
1788552685 25.56° C 83% 1013.5 hPa 0 mm - 211 W/m² -
1788552385 25.56° C 82% 1013.6 hPa 0 mm - 225 W/m² -
1788552085 25.56° C 84% 1013.9 hPa 0 mm - 254 W/m² -
1788551785 25° C 83% 1013.7 hPa 0 mm - 288 W/m² -
1788551485 25° C 83% 1013.6 hPa 0 mm - 360 W/m² -
1788551186 25° C 84% 1013.5 hPa 0 mm - 364 W/m² -
1788550887 25° C 84% 1013.6 hPa 0 mm - 314 W/m² -
1788550586 25° C 84% 1013.5 hPa 0 mm - 334 W/m² -
1788550285 24.44° C 85% 1013.5 hPa 0 mm - 382 W/m² -
1788549986 24.44° C 85% 1013.5 hPa 0 mm - 368 W/m² -
1788549686 24.44° C 89% 1014 hPa 0 mm - 448 W/m² -
1788549386 23.89° C 88% 1013.8 hPa 0 mm - 356 W/m² -
1788549087 23.89° C 88% 1013.9 hPa 0 mm - 276 W/m² -
1788548785 23.89° C 89% 1014 hPa 0 mm - 249 W/m² -
1788548485 23.89° C 88% 1014 hPa 0 mm - 255 W/m² -

* Rain latest hour (hover to see other rain measurements)
** Current wind speed in m/s (hover to see current wind gust speed)